Vanaf de start van Weerstation Assen op 01-04-2009 wordt iedere 5 minuten data gestuurd naar de Weather Underground. In het overzicht hieronder is dit terug te vinden op datum en per 5 minuten.
Station Historical Data
 
Dagelijks Overzicht voor Oktober 20, 2017 Eenheden:  Beide    Engels   Metrisch
« Vorige Dag
Volgende Dag »
Dagelijks Wekelijks Maandelijks Jaarlijks Custom
  Huidig: Hoog: Laag: Gemiddeld:
Temperatuur: 61 °F /  16.1 °C 61 °F /  16.1 °C 59.5 °F /  15.3 °C 60.1 °F /  15.6 °C
Dauwpunt: 55.9 °F /  13.3 °C 56.1 °F /  13.4 °C 55.2 °F /  12.9 °C 55.8 °F /  13.2 °C
Vochtigheid: 84 % 87 % 84 % 86 %
Windkracht: 4.6 mph /  7.4 km/h 10.4 mph /  16.7 km/h - 4.7 mph /  7.5 km/h
Wind vlaag: 4.6 mph /  7.4 km/h 10.4 mph /  16.7 km/h - -
Wind:South - - South
Luchtdruk: 29.8 in /  1008.0 hPa 29.8 in /  1008.0 hPa 29.8 in /  1007.7 hPa -
Neerslag: 0 in /  0.0 mm      
Historical Graphs
 
 
Tabel Data for Oktober 20, 2017
Tijd Temperatuur Dauwpunt Luchtdruk Wind Windkracht Windvlaag Vochtigheid Regenval snelheid (Per uur) Zon Condities
00:00 59.7 °F /  15.4 °C 55.6 °F /  13.1 °C 29.8 in /  1008.0 hPa SSE 2.3 mph /  3.7 km/h   86 % 0 in /  0.0 mm 0.0 W/m2 CLR
00:05 59.7 °F /  15.4 °C 55.6 °F /  13.1 °C 29.8 in /  1008.0 hPa SSE 3.5 mph /  5.6 km/h 3.5 mph /  5.6 km/h 86 % 0 in /  0.0 mm 0.0 W/m2 CLR
00:10 59.7 °F /  15.4 °C 55.6 °F /  13.1 °C 29.8 in /  1008.0 hPa SSE 2.3 mph /  3.7 km/h   86 % 0 in /  0.0 mm 0.0 W/m2 CLR
00:15 59.5 °F /  15.3 °C 55.4 °F /  13.0 °C 29.8 in /  1008.0 hPa SE 3.5 mph /  5.6 km/h 3.5 mph /  5.6 km/h 86 % 0 in /  0.0 mm 0.0 W/m2 CLR
00:20 59.5 °F /  15.3 °C 55.4 °F /  13.0 °C 29.8 in /  1008.0 hPa SSE 1.2 mph /  1.9 km/h   86 % 0 in /  0.0 mm 0.0 W/m2 CLR
00:25 59.5 °F /  15.3 °C 55.6 °F /  13.1 °C 29.8 in /  1008.0 hPa Calm     87 % 0 in /  0.0 mm 0.0 W/m2 CLR
00:30 59.5 °F /  15.3 °C 55.2 °F /  12.9 °C 29.8 in /  1008.0 hPa SE 3.5 mph /  5.6 km/h 3.5 mph /  5.6 km/h 86 % 0 in /  0.0 mm 0.0 W/m2 CLR
00:35 59.5 °F /  15.3 °C 55.6 °F /  13.1 °C 29.8 in /  1008.0 hPa SSE 3.5 mph /  5.6 km/h 3.5 mph /  5.6 km/h 87 % 0 in /  0.0 mm 0.0 W/m2 CLR
00:45 59.5 °F /  15.3 °C 55.6 °F /  13.1 °C 29.8 in /  1007.7 hPa South 4.6 mph /  7.4 km/h 4.6 mph /  7.4 km/h 87 % 0 in /  0.0 mm 0.0 W/m2 CLR
00:50 59.5 °F /  15.3 °C 55.8 °F /  13.2 °C 29.8 in /  1007.7 hPa South 3.5 mph /  5.6 km/h 3.5 mph /  5.6 km/h 87 % 0 in /  0.0 mm 0.0 W/m2 CLR
00:55 59.5 °F /  15.3 °C 55.4 °F /  13.0 °C 29.8 in /  1008.0 hPa SSE 6.9 mph /  11.1 km/h 6.9 mph /  11.1 km/h 86 % 0 in /  0.0 mm 0.0 W/m2 CLR
01:00 59.7 °F /  15.4 °C 55.6 °F /  13.1 °C 29.8 in /  1008.0 hPa SE 3.5 mph /  5.6 km/h 3.5 mph /  5.6 km/h 86 % 0 in /  0.0 mm 0.0 W/m2 CLR
01:05 59.7 °F /  15.4 °C 55.6 °F /  13.1 °C 29.8 in /  1007.7 hPa South 3.5 mph /  5.6 km/h 3.5 mph /  5.6 km/h 86 % 0 in /  0.0 mm 0.0 W/m2 CLR
01:10 59.7 °F /  15.4 °C 55.6 °F /  13.1 °C 29.8 in /  1008.0 hPa SSE 4.6 mph /  7.4 km/h 4.6 mph /  7.4 km/h 86 % 0 in /  0.0 mm 0.0 W/m2 CLR
01:15 59.7 °F /  15.4 °C 55.6 °F /  13.1 °C 29.8 in /  1008.0 hPa SSE 4.6 mph /  7.4 km/h 4.6 mph /  7.4 km/h 86 % 0 in /  0.0 mm 0.0 W/m2 CLR
01:20 59.7 °F /  15.4 °C 55.6 °F /  13.1 °C 29.8 in /  1008.0 hPa SSW 5 mph /  8.0 km/h 5 mph /  8.0 km/h 86 % 0 in /  0.0 mm 0.0 W/m2 CLR
01:25 59.7 °F /  15.4 °C 55.6 °F /  13.1 °C 29.8 in /  1008.0 hPa SE 4.6 mph /  7.4 km/h 4.6 mph /  7.4 km/h 86 % 0 in /  0.0 mm 0.0 W/m2 CLR
01:30 59.7 °F /  15.4 °C 55.6 °F /  13.1 °C 29.8 in /  1008.0 hPa SSE 5 mph /  8.0 km/h 5 mph /  8.0 km/h 86 % 0 in /  0.0 mm 0.0 W/m2 CLR
01:35 59.7 °F /  15.4 °C 55.6 °F /  13.1 °C 29.8 in /  1008.0 hPa SW 10.4 mph /  16.7 km/h 10.4 mph /  16.7 km/h 86 % 0 in /  0.0 mm 0.0 W/m2 CLR
01:40 59.7 °F /  15.4 °C 55.6 °F /  13.1 °C 29.8 in /  1008.0 hPa South 3.5 mph /  5.6 km/h 3.5 mph /  5.6 km/h 86 % 0 in /  0.0 mm 0.0 W/m2 CLR
01:45 59.7 °F /  15.4 °C 55.6 °F /  13.1 °C 29.8 in /  1008.0 hPa SE 5.8 mph /  9.3 km/h 5.8 mph /  9.3 km/h 86 % 0 in /  0.0 mm 0.0 W/m2 CLR
01:50 60.1 °F /  15.6 °C 55.8 °F /  13.2 °C 29.8 in /  1008.0 hPa South 4 mph /  6.4 km/h 4 mph /  6.4 km/h 86 % 0 in /  0.0 mm 0.0 W/m2 CLR
01:55 60.3 °F /  15.7 °C 55.8 °F /  13.2 °C 29.8 in /  1008.0 hPa SSW 8.1 mph /  13.0 km/h 8.1 mph /  13.0 km/h 85 % 0 in /  0.0 mm 0.0 W/m2 CLR
02:00 60.1 °F /  15.6 °C 55.9 °F /  13.3 °C 29.8 in /  1008.0 hPa SSW 5.8 mph /  9.3 km/h 5.8 mph /  9.3 km/h 86 % 0 in /  0.0 mm 0.0 W/m2 CLR
02:05 60.3 °F /  15.7 °C 55.8 °F /  13.2 °C 29.8 in /  1008.0 hPa SSE 4.6 mph /  7.4 km/h 4.6 mph /  7.4 km/h 85 % 0 in /  0.0 mm 0.0 W/m2 CLR
02:10 60.3 °F /  15.7 °C 55.8 °F /  13.2 °C 29.8 in /  1008.0 hPa SSW 3.5 mph /  5.6 km/h 3.5 mph /  5.6 km/h 85 % 0 in /  0.0 mm 0.0 W/m2 CLR
02:15 60.3 °F /  15.7 °C 55.8 °F /  13.2 °C 29.8 in /  1008.0 hPa SSW 3.5 mph /  5.6 km/h 3.5 mph /  5.6 km/h 85 % 0 in /  0.0 mm 0.0 W/m2 CLR
02:20 60.4 °F /  15.8 °C 55.9 °F /  13.3 °C 29.8 in /  1008.0 hPa South 4.6 mph /  7.4 km/h 4.6 mph /  7.4 km/h 85 % 0 in /  0.0 mm 0.0 W/m2 CLR
02:25 60.4 °F /  15.8 °C 55.9 °F /  13.3 °C 29.8 in /  1008.0 hPa SSW 3.5 mph /  5.6 km/h 3.5 mph /  5.6 km/h 85 % 0 in /  0.0 mm 0.0 W/m2 CLR
02:30 60.4 °F /  15.8 °C 55.9 °F /  13.3 °C 29.8 in /  1008.0 hPa SSW 6.9 mph /  11.1 km/h 6.9 mph /  11.1 km/h 85 % 0 in /  0.0 mm 0.0 W/m2 CLR
02:35 60.6 °F /  15.9 °C 56.1 °F /  13.4 °C 29.8 in /  1008.0 hPa SW 4.6 mph /  7.4 km/h 4.6 mph /  7.4 km/h 85 % 0 in /  0.0 mm 0.0 W/m2 CLR
02:40 60.6 °F /  15.9 °C 55.8 °F /  13.2 °C 29.8 in /  1008.0 hPa South 9.2 mph /  14.8 km/h 9.2 mph /  14.8 km/h 84 % 0 in /  0.0 mm 0.0 W/m2 CLR
02:45 60.6 °F /  15.9 °C 56.1 °F /  13.4 °C 29.8 in /  1008.0 hPa South 5.8 mph /  9.3 km/h 5.8 mph /  9.3 km/h 85 % 0 in /  0.0 mm 0.0 W/m2 CLR
02:50 60.8 °F /  16.0 °C 55.9 °F /  13.3 °C 29.8 in /  1008.0 hPa South 5.8 mph /  9.3 km/h 5.8 mph /  9.3 km/h 84 % 0 in /  0.0 mm 0.0 W/m2 CLR
02:55 60.8 °F /  16.0 °C 55.9 °F /  13.3 °C 29.8 in /  1008.0 hPa SE 5.8 mph /  9.3 km/h 5.8 mph /  9.3 km/h 84 % 0 in /  0.0 mm 0.0 W/m2 CLR
03:00 60.8 °F /  16.0 °C 55.9 °F /  13.3 °C 29.8 in /  1008.0 hPa SSW 6.9 mph /  11.1 km/h 6.9 mph /  11.1 km/h 84 % 0 in /  0.0 mm 0.0 W/m2 CLR
03:05 61 °F /  16.1 °C 55.9 °F /  13.3 °C 29.8 in /  1008.0 hPa South 4.6 mph /  7.4 km/h 4.6 mph /  7.4 km/h 84 % 0 in /  0.0 mm 0.0 W/m2 CLR
Weerstation Assen
Compliments of Weather Underground - 512 kb

© 2009 - 2017 Weerstation Assen
alle rechten voorbehouden
www.weerstation-assen.nl

Baseer nooit belangrijke beslissingen op deze of andere weergegevens verkregen via Internet.
WeBBuddy Website Monitor
Weerstation Assen op Facebook
Weerstation Assen op Twitter